| time (UTC) | temp C | wind direction | speed KPH | gust KPH | rain 1hr cm | rain 24hr cm | rain mn cm | humidity % | barometer mb |
| 20260507080737 | 12 | 128 | 4.8 | 8.0 | 0.00 | 0.00 | 0.00 | 12 | 1010.0 |
| 20260507075736 | 12 | 128 | 4.8 | 8.0 | 0.00 | 0.00 | 0.00 | 12 | 1010.0 |
| 20260507074735 | 12 | 0 | 0.0 | 0.0 | 0.00 | 0.00 | 0.00 | 12 | 1010.0 |
| 20260507073734 | 12 | 0 | 0.0 | 0.0 | 0.00 | 0.00 | 0.00 | 12 | 1010.0 |
| 20260507071520 | 12 | 0 | 0.0 | 0.0 | 0.00 | 0.00 | 0.00 | 12 | 1010.0 |
| 20260507070519 | 7 | 0 | 1.6 | 0.0 | 0.00 | 0.00 | 0.00 | 16 | 1010.0 |
| 20260507064307 | 7 | 0 | 1.6 | 0.0 | 0.00 | 0.00 | 0.00 | 16 | 1010.0 |
| 20260507062056 | 8 | 0 | 1.6 | 0.0 | 0.00 | 0.00 | 0.00 | 16 | 1010.0 |
| 20260507061054 | 8 | 0 | 1.6 | 0.0 | 0.00 | 0.00 | 0.00 | 16 | 1010.0 |
| 20260507060053 | 9 | 0 | 1.6 | 0.0 | 0.00 | 0.00 | 0.00 | 16 | 1010.0 |
| 20260507055052 | 10 | 0 | 1.6 | 0.0 | 0.00 | 0.00 | 0.00 | 16 | 1010.0 |
| 20260507054050 | 3 | 110 | 4.8 | 0.0 | 0.00 | 0.00 | 0.00 | 10 | 1010.0 |
| 20260507051837 | 4 | 0 | 0.0 | 0.0 | 0.00 | 0.00 | 0.00 | 10 | 1011.0 |
| 20260507050836 | 4 | 0 | 0.0 | 0.0 | 0.00 | 0.00 | 0.00 | 10 | 1011.0 |
| 20260507045835 | 3 | 0 | 0.0 | 0.0 | 0.00 | 0.00 | 0.00 | 10 | 1011.0 |
| 20260507044833 | 4 | 0 | 0.0 | 0.0 | 0.00 | 0.00 | 0.00 | 10 | 1011.0 |
| 20260507043831 | 3 | 0 | 0.0 | 0.0 | 0.00 | 0.00 | 0.00 | 93 | 1011.0 |
| 20260507042830 | 4 | 0 | 0.0 | 0.0 | 0.00 | 0.00 | 0.00 | 93 | 1011.0 |
| 20260507041829 | 5 | 0 | 0.0 | 0.0 | 0.00 | 0.00 | 0.00 | 93 | 1011.0 |
| 20260507035615 | 5 | 0 | 0.0 | 0.0 | 0.00 | 0.00 | 0.00 | 93 | 1011.0 |
| 20260507034614 | 6 | 0 | 0.0 | 0.0 | 0.00 | 0.00 | 0.00 | 93 | 1011.0 |
| 20260507032359 | 6 | 0 | 0.0 | 0.0 | 0.00 | 0.00 | 0.00 | 93 | 1011.0 |
| 20260507030141 | 3 | 0 | 0.0 | 0.0 | 0.00 | 0.00 | 0.00 | 82 | 1011.0 |
| 20260507023926 | 3 | 0 | 0.0 | 0.0 | 0.00 | 0.00 | 0.00 | 82 | 1011.0 |
| 20260507020456 | 4 | 0 | 0.0 | 0.0 | 0.00 | 0.00 | 0.00 | 82 | 1011.0 |
| 20260507014245 | 5 | 0 | 0.0 | 0.0 | 0.00 | 0.00 | 0.00 | 82 | 1011.0 |
| 20260507012034 | 5 | 0 | 0.0 | 0.0 | 0.00 | 0.00 | 0.00 | 82 | 1011.0 |
| 20260507005822 | 6 | 0 | 0.0 | 0.0 | 0.00 | 0.00 | 0.00 | 82 | 1011.0 |
| 20260507004820 | 6 | 0 | 0.0 | 0.0 | 0.00 | 0.00 | 0.00 | 82 | 1011.0 |
| 20260507002604 | 7 | 0 | 0.0 | 0.0 | 0.00 | 0.00 | 0.00 | 82 | 1011.0 |
| 20260507001603 | 7 | 0 | 0.0 | 0.0 | 0.00 | 0.00 | 0.00 | 82 | 1011.0 |
| 20260506235352 | 8 | 0 | 0.0 | 0.0 | 0.00 | 0.00 | 0.00 | 82 | 1011.0 |
| 20260506234351 | 8 | 0 | 0.0 | 0.0 | 0.00 | 0.00 | 0.00 | 82 | 1011.0 |
| 20260506233350 | 9 | 0 | 0.0 | 0.0 | 0.00 | 0.00 | 0.00 | 82 | 1011.0 |
| 20260506232350 | 10 | 0 | 0.0 | 0.0 | 0.00 | 0.00 | 0.00 | 82 | 1011.0 |
| 20260506231349 | 10 | 0 | 0.0 | 0.0 | 0.00 | 0.00 | 0.00 | 82 | 1011.0 |
| 20260506230348 | 11 | 0 | 0.0 | 0.0 | 0.00 | 0.00 | 0.00 | 71 | 1011.0 |
| 20260506225347 | 11 | 0 | 0.0 | 0.0 | 0.00 | 0.00 | 0.00 | 71 | 1011.0 |
| 20260506224346 | 11 | 0 | 0.0 | 0.0 | 0.00 | 0.00 | 0.00 | 71 | 1011.0 |
| 20260506223346 | 11 | 0 | 0.0 | 0.0 | 0.00 | 0.00 | 0.00 | 76 | 1011.0 |
| 20260506222345 | 11 | 0 | 0.0 | 0.0 | 0.00 | 0.00 | 0.00 | 76 | 1011.0 |
| 20260506221344 | 11 | 0 | 0.0 | 0.0 | 0.00 | 0.00 | 0.00 | 76 | 1011.0 |
| 20260506220342 | 12 | 280 | 1.6 | 0.0 | 0.00 | 0.00 | 0.00 | 67 | 1011.0 |
| 20260506215339 | 5 | 50 | 12.9 | 0.0 | 0.00 | 0.00 | 0.00 | 11 | 1011.0 |
| 20260506214337 | 5 | 50 | 12.9 | 0.0 | 0.00 | 0.00 | 0.00 | 11 | 1011.0 |
| 20260506213336 | 6 | 50 | 12.9 | 0.0 | 0.00 | 0.00 | 0.00 | 11 | 1011.0 |
| 20260506212334 | 6 | 50 | 12.9 | 0.0 | 0.00 | 0.00 | 0.00 | 11 | 1011.0 |
| 20260506211333 | 7 | 50 | 12.9 | 0.0 | 0.00 | 0.00 | 0.00 | 11 | 1011.0 |
| 20260506210333 | 7 | 50 | 12.9 | 0.0 | 0.00 | 0.00 | 0.00 | 11 | 1011.0 |
| 20260506205332 | 8 | 50 | 12.9 | 0.0 | 0.00 | 0.00 | 0.00 | 11 | 1011.0 |
| 20260506204331 | 8 | 50 | 12.9 | 0.0 | 0.00 | 0.00 | 0.00 | 11 | 1011.0 |
| 20260506202114 | 9 | 50 | 12.9 | 0.0 | 0.00 | 0.00 | 0.00 | 11 | 1011.0 |
| 20260506195859 | 10 | 50 | 12.9 | 0.0 | 0.00 | 0.00 | 0.00 | 11 | 1011.0 |
| 20260506194858 | 10 | 50 | 12.9 | 0.0 | 0.00 | 0.00 | 0.00 | 11 | 1011.0 |
| 20260506193857 | 11 | 50 | 12.9 | 0.0 | 0.00 | 0.00 | 0.00 | 11 | 1011.0 |
| 20260506192856 | 11 | 50 | 12.9 | 0.0 | 0.00 | 0.00 | 0.00 | 11 | 1010.0 |
| 20260506191856 | 12 | 50 | 12.9 | 0.0 | 0.00 | 0.00 | 0.00 | 11 | 1010.0 |
| 20260506190855 | 12 | 50 | 12.9 | 0.0 | 0.00 | 0.00 | 0.00 | 11 | 1010.0 |
| 20260506185854 | 13 | 50 | 12.9 | 0.0 | 0.00 | 0.00 | 0.00 | 11 | 1010.0 |
| 20260506184852 | 13 | 50 | 12.9 | 0.0 | 0.00 | 0.00 | 0.00 | 11 | 1010.0 |
| 20260506183851 | 14 | 50 | 12.9 | 0.0 | 0.00 | 0.00 | 0.00 | 11 | 1010.0 |
| 20260506182850 | 15 | 50 | 12.9 | 0.0 | 0.00 | 0.00 | 0.00 | 11 | 1010.0 |
| 20260506180639 | 15 | 50 | 12.9 | 0.0 | 0.00 | 0.00 | 0.00 | 11 | 1010.0 |
| 20260506174426 | 16 | 50 | 12.9 | 0.0 | 0.00 | 0.00 | 0.00 | 11 | 1010.0 |
| 20260506173423 | 16 | 50 | 12.9 | 0.0 | 0.00 | 0.00 | 0.00 | 11 | 1010.0 |
| 20260506165958 | 16 | 50 | 12.9 | 0.0 | 0.00 | 0.00 | 0.00 | 11 | 1010.0 |
| 20260506164957 | 17 | 50 | 12.9 | 0.0 | 0.00 | 0.00 | 0.00 | 11 | 1010.0 |
| 20260506162740 | 17 | 50 | 12.9 | 0.0 | 0.00 | 0.00 | 0.00 | 11 | 1009.0 |
| 20260506161740 | 17 | 50 | 12.9 | 0.0 | 0.00 | 0.00 | 0.00 | 11 | 1009.0 |
| 20260506160739 | 17 | 50 | 12.9 | 0.0 | 0.00 | 0.00 | 0.00 | 11 | 1009.0 |
| 20260506155737 | 17 | 50 | 12.9 | 0.0 | 0.00 | 0.00 | 0.00 | 11 | 1009.0 |
| 20260506154736 | 17 | 50 | 12.9 | 0.0 | 0.00 | 0.00 | 0.00 | 11 | 1009.0 |
| 20260506153734 | 16 | 50 | 12.9 | 0.0 | 0.00 | 0.00 | 0.00 | 11 | 1009.0 |
| 20260506152733 | 16 | 50 | 12.9 | 0.0 | 0.00 | 0.00 | 0.00 | 11 | 1010.0 |
| 20260506151732 | 16 | 50 | 12.9 | 0.0 | 0.00 | 0.00 | 0.00 | 11 | 1010.0 |
| 20260506150730 | 16 | 50 | 12.9 | 0.0 | 0.00 | 0.00 | 0.00 | 11 | 1010.0 |
| 20260506145730 | 16 | 50 | 12.9 | 0.0 | 0.00 | 0.00 | 0.00 | 11 | 1010.0 |
| 20260506144729 | 16 | 50 | 12.9 | 0.0 | 0.00 | 0.00 | 0.00 | 11 | 1010.0 |
| 20260506142514 | 16 | 50 | 12.9 | 0.0 | 0.00 | 0.00 | 0.00 | 11 | 1011.0 |
| 20260506141513 | 16 | 50 | 12.9 | 0.0 | 0.00 | 0.00 | 0.00 | 11 | 1011.0 |
| 20260506140513 | 16 | 50 | 12.9 | 0.0 | 0.00 | 0.00 | 0.00 | 11 | 1011.0 |
| 20260506135510 | 16 | 50 | 12.9 | 0.0 | 0.00 | 0.00 | 0.00 | 12 | 1011.0 |
| 20260506133257 | 16 | 50 | 12.9 | 0.0 | 0.00 | 0.00 | 0.00 | 12 | 1011.0 |
| 20260506132257 | 16 | 50 | 12.9 | 0.0 | 0.00 | 0.00 | 0.00 | 12 | 1012.0 |
| 20260506131256 | 16 | 50 | 12.9 | 0.0 | 0.00 | 0.00 | 0.00 | 12 | 1012.0 |
| 20260506130255 | 15 | 50 | 12.9 | 0.0 | 0.00 | 0.00 | 0.00 | 12 | 1011.0 |
| 20260506125254 | 15 | 50 | 12.9 | 0.0 | 0.00 | 0.00 | 0.00 | 12 | 1011.0 |
| 20260506124253 | 15 | 50 | 12.9 | 0.0 | 0.00 | 0.00 | 0.00 | 12 | 1011.0 |
| 20260506123253 | 15 | 50 | 12.9 | 0.0 | 0.00 | 0.00 | 0.00 | 12 | 1011.0 |
| 20260506122252 | 15 | 50 | 12.9 | 0.0 | 0.00 | 0.00 | 0.00 | 12 | 1012.0 |
| 20260506121250 | 15 | 50 | 12.9 | 0.0 | 0.00 | 0.00 | 0.00 | 12 | 1012.0 |
| 20260506120249 | 15 | 50 | 12.9 | 0.0 | 0.00 | 0.00 | 0.00 | 12 | 1012.0 |
| 20260506115248 | 14 | 50 | 12.9 | 0.0 | 0.00 | 0.00 | 0.00 | 13 | 1012.0 |
| 20260506114247 | 14 | 50 | 12.9 | 0.0 | 0.00 | 0.00 | 0.00 | 13 | 1012.0 |
| 20260506113245 | 14 | 50 | 12.9 | 0.0 | 0.00 | 0.00 | 0.00 | 13 | 1012.0 |
| 20260506111033 | 13 | 80 | 6.4 | 0.0 | 0.00 | 0.00 | 0.00 | 13 | 1013.0 |
| 20260506110031 | 13 | 80 | 6.4 | 0.0 | 0.00 | 0.00 | 0.00 | 13 | 1013.0 |
| 20260506105030 | 13 | 80 | 6.4 | 0.0 | 0.00 | 0.00 | 0.00 | 13 | 1013.0 |
| 20260506104029 | 12 | 90 | 6.4 | 0.0 | 0.00 | 0.00 | 0.00 | 13 | 1013.0 |
| 20260506103029 | 12 | 90 | 6.4 | 0.0 | 0.00 | 0.00 | 0.00 | 13 | 1013.0 |
| 20260506102027 | 12 | 90 | 6.4 | 0.0 | 0.00 | 0.00 | 0.00 | 13 | 1014.0 |
| 20260506101026 | 12 | 160 | 6.4 | 0.0 | 0.00 | 0.00 | 0.00 | 13 | 1014.0 |
| 20260506100025 | 12 | 160 | 6.4 | 0.0 | 0.00 | 0.00 | 0.00 | 13 | 1013.0 |
| 20260506093809 | 11 | 160 | 6.4 | 0.0 | 0.00 | 0.00 | 0.00 | 13 | 1013.0 |
| 20260506092808 | 11 | 160 | 6.4 | 0.0 | 0.00 | 0.00 | 0.00 | 14 | 1014.0 |
| 20260506091807 | 10 | 160 | 6.4 | 0.0 | 0.00 | 0.00 | 0.00 | 15 | 1014.0 |
| 20260506090806 | 10 | 160 | 6.4 | 0.0 | 0.00 | 0.00 | 0.00 | 16 | 1014.0 |
| 20260506085806 | 10 | 160 | 6.4 | 0.0 | 0.00 | 0.00 | 0.00 | 16 | 1014.0 |
| 20260506084805 | 10 | 160 | 6.4 | 0.0 | 0.00 | 0.00 | 0.00 | 16 | 1014.0 |
| 20260506083804 | 9 | 130 | 6.4 | 0.0 | 0.00 | 0.00 | 0.00 | 16 | 1014.0 |
| 20260506081551 | 10 | 130 | 6.4 | 0.0 | 0.00 | 0.00 | 0.00 | 16 | 1015.0 |